Weather History for Hurghada, Egypt

Change the Weather History Date:

Wednesday, October 31, 2012

  Actual Average Record
Temperature  
Mean Temperature 80 °F -  
Max Temperature 91 °F 77 °F 91 °F (2012)
Min Temperature 68 °F 62 °F 62 °F (2006)
Cooling Degree Days 14    
Growing Degree Days 30 (Base 50)    
Moisture  
Dew Point 55 °F    
Average Humidity 43    
Maximum Humidity 79    
Minimum Humidity 21    
Precipitation  
Precipitation 0.00 in - - ()
Sea Level Pressure  
Sea Level Pressure 29.85 in    
Wind  
Wind Speed 9 mph ()    
Max Wind Speed 20 mph    
Max Gust Speed -    
Visibility 6.0 miles    
Events      
Averages and records for this station are not official NWS values.
T = Trace of Precipitation, MM = Missing Value Source: Averaged Metar Reports

Daily Weather History Graph

Daily Weather History Graph

Search for Another Location

Airport:

Trip Planner

Search our weather history database for the weather conditions in past years. The results will help you decide how hot, cold, wet, or windy it might be!

Date:

Astronomy

Oct. 31, 2012 Rise Set
Actual Time 5:54 AM EET 5:02 PM EET
Civil Twilight 5:30 AM EET 5:25 PM EET
Nautical Twilight 5:02 AM EET 5:53 PM EET
Astronomical Twilight 4:35 AM EET 6:20 PM EET
Moon 6:07 PM EET (10/31) 7:08 AM EET (10/31)
Length of Visible Light 11h 55m
Length of Day
11h 07m
Full, 98% of the Moon is Illuminated
Oct 31
Full
Nov 7
Last Quarter
Nov 14
New
Nov 20
First Quarter
Nov 28
Full

Hourly Weather History & Observations

Time (EET) Temp. Heat Index Dew Point Humidity Pressure Visibility Wind Dir Wind Speed Gust Speed Precip Events Conditions
12:00 AM 73.4 °F - 44.6 °F 36% 29.83 in - WNW 13.8 mph - N/A   Clear
1:00 AM 73.4 °F - 44.6 °F 36% 29.83 in - WNW 13.8 mph - N/A   Clear
2:00 AM 73 °F - 45 °F 25% 29.84 in 6 mi WNW 13.8 mph - -  
2:00 AM 73.4 °F - 44.6 °F 36% 29.83 in - WNW 13.8 mph - N/A   Clear
3:00 AM 71.6 °F - 46.4 °F 41% 29.83 in - WNW 11.5 mph - N/A   Clear
4:00 AM 69.8 °F - 46.4 °F 43% 29.83 in - WNW 9.2 mph - N/A   Clear
5:00 AM 69.8 °F - 46.4 °F 43% 29.83 in - WNW 9.2 mph - N/A   Clear
6:00 AM 68.0 °F - 44.6 °F 43% 29.83 in - WNW 9.2 mph - N/A   Clear
7:00 AM 71.6 °F - 44.6 °F 38% 29.86 in - WNW 9.2 mph - N/A   Clear
8:00 AM 77 °F - 49 °F 26% 29.89 in 6 mi NW 8.1 mph - -  
8:00 AM 77.0 °F - 48.2 °F 36% 29.89 in - NW 19.6 mph - N/A   Clear
9:00 AM 82.4 °F - 51.8 °F 35% 29.89 in - North 9.2 mph - N/A   Clear
10:00 AM 84.2 °F 83.0 °F 55.4 °F 37% 29.89 in - North 12.7 mph - N/A   Clear
11:00 AM 86.0 °F 85.4 °F 59.0 °F 40% 29.86 in - North 15.0 mph - N/A   Clear
12:00 PM 87.8 °F 87.1 °F 59.0 °F 38% 29.86 in - North 11.5 mph - N/A   Clear
1:00 PM 89.6 °F 88.1 °F 57.2 °F 33% 29.83 in - North 8.1 mph - N/A   Clear
2:00 PM 91 °F - 56 °F 21% 29.84 in 6 mi NE 11.5 mph - -   Clear
2:00 PM 91.4 °F 89.4 °F 55.4 °F 29% 29.83 in - NE 11.5 mph - N/A   Clear
3:00 PM 89.6 °F 88.9 °F 59.0 °F 36% 29.83 in - NE 6.9 mph - N/A   Clear
4:00 PM 87.8 °F 88.5 °F 62.6 °F 43% 29.80 in - ENE 6.9 mph - N/A   Clear
5:00 PM 86.0 °F 87.3 °F 64.4 °F 48% 29.83 in - NNE 4.6 mph - N/A   Clear
6:00 PM 84.2 °F 89.6 °F 71.6 °F 66% 29.86 in - North 4.6 mph - N/A   Clear
7:00 PM 80.6 °F 85.4 °F 73.4 °F 79% 29.86 in - NNW 2.3 mph - N/A   Clear
8:00 PM 79 °F - 68 °F 62% 29.89 in 6 mi NNW 2.3 mph - -  
8:00 PM 78.8 °F - 68.0 °F 69% 29.89 in - NNW 2.3 mph - N/A   Clear
9:00 PM 77.0 °F - 59.0 °F 54% 29.89 in - West 6.9 mph - N/A   Clear
10:00 PM 75.2 °F - 59.0 °F 57% 29.86 in - WNW 4.6 mph - N/A   Clear
11:00 PM 73.4 °F - 60.8 °F 65% 29.86 in - WNW 5.8 mph - N/A   Clear